User: anonymous   Login
Location: Gombori
(14.9797°N, 2.9419°W)
Time: 07:01:56
(UTC+00:00)
Language:

COSMOS 1275 DEB - Orbit

View from above orbital plane
View from above orbital plane
View from above satellite
View from above satellite

Ground track
Ground track

The orbit data is extracted from the following two-line orbital elements,

1 42222U 81053UN  22139.00226793  .00003317  00000-0  21571-2 0  9997
2 42222  82.9863 236.5862 0067949 234.8104 124.6692 14.01121432991096
Epoch (UTC): 19 May 2022 00:03:15
Eccentricity: 0.0067949
inclination: 82.9863°
perigee height: 840 km
apogee height: 939 km
right ascension of ascending node: 236.5862°
argument of perigee: 234.8104°
revolutions per day: 14.01121432
mean anomaly at epoch: 124.6692°
orbit number at epoch: 99109

The dashed part of the orbit path shows where the satellite is in the earth's shadow,  

DLR